Kezdőlap
METAR-TAF:

METAR-TAF

Repülőterek :

Owatonna Degner Regional Airport

Owatonna, Minnesota, Amerikai Egyesült Államok

földrajzi szélesség: 44-07N, földrajzi hosszúság: 093-15W, magasság: 350 m

Jelenlegi meteorológiai megfigyelések

A jelentés 25 perccel ezelõtt készült, 02:13 UTC
Északi szél 12 kt széllökések: 16 kt
Hőmérséklet 11°C
Páratartalom 87%
Légköri nyomás 1009 hPa
Látótávolság: 16.1 km
enyhe esõ

METAR: KOWA 260213Z AUTO 01012G16KT 10SM -RA 11/09 A2980 RMK AO2

Idő: 21:38 (02:38 UTC)


TAF: hiányzik

Meteorológiai megfigyelések és előrejelzések több, mint 4000 repülőtéren (METAR és TAF jelentéseket).

A térképen piros és sárga pontok jelzik az elérhető meteorológiai állomásokat.

Mozgassa az egeret a pont fölött, hogy megjelenjen az állomás neve.

Azután kattintson az időjárási megfigyelések és előrejelzések megtekintéséhez.

A térkép megváltoztatása: kattintson a fekete keresztel jelölt zöld gombra ráközelítéshez, a vonallal jelölt zöld gombra távolításhoz, vagy a zöld nyilakra a szomszédos térképek eléréséhez.


METAR-TAF: